White Mountain, AK

5:42 AM AKDT on May 30, 2017 (GMT -0800)
White Mountain

Weather History for PAWM - February, 2013

Change the Weather History Date:

Sunday, February 17, 2013

  Actual Average (PAOM) Record (PAOM)
Temperature  
Mean Temperature -10 °F -  
Max Temperature -4 °F 9 °F 36 °F (2001)
Min Temperature -16 °F -3 °F -40 °F (1971)
Degree Days  
Heating Degree Days 74    
Moisture  
Dew Point -17 °F    
Average Humidity 74    
Maximum Humidity 79    
Minimum Humidity 65    
Precipitation  
Precipitation 0.00 in - - ()
Sea Level Pressure  
Sea Level Pressure 30.34 in    
Wind  
Wind Speed 14 mph (NNW)    
Max Wind Speed 20 mph    
Max Gust Speed 23 mph    
Visibility 10 miles    
Events      
Averages and records for this station are not official NWS values.
T = Trace of Precipitation, MM = Missing Value Source: NWS Daily Summary

Daily Weather History Graph

Daily Weather History Graph

Search for Another Location

Airport or City:

Trip Planner

Search our weather history database for the weather conditions in past years. The results will help you decide how hot, cold, wet, or windy it might be!

Date:

Astronomy

Feb. 17, 2013 Rise Set
Actual Time 9:42 AM AKST 6:33 PM AKST
Civil Twilight 8:51 AM AKST 7:25 PM AKST
Nautical Twilight 7:54 AM AKST 8:22 PM AKST
Astronomical Twilight 6:58 AM AKST 9:18 PM AKST
Moon 10:40 AM AKST (2/17) 4:40 AM AKST (2/17)
Length of Visible Light 10h 33m
Length of Day
8h 50m
Waxing Crescent, 50% of the Moon is Illuminated
Feb 17
Waxing Crescent
Feb 25
Full
Mar 4
Last Quarter
Mar 11
New
Mar 19
First Quarter

Hourly Weather History & Observations

Time (AKST) Temp. Windchill Dew Point Humidity Pressure Visibility Wind Dir Wind Speed Gust Speed Precip Events Conditions
12:58 AM -11.9 °F -35.4 °F -17.0 °F 78% 30.22 in 10.0 mi North 16.1 mph - 0.00 in   Clear
1:58 AM -11.9 °F -37.4 °F -17.0 °F 78% 30.22 in 10.0 mi NNW 19.6 mph - N/A   Clear
3:58 AM -11.9 °F -33.8 °F -17.0 °F 78% 30.25 in 10.0 mi NNW 13.8 mph - N/A   Clear
4:58 AM -11.9 °F -35.4 °F -17.0 °F 78% 30.25 in 10.0 mi North 16.1 mph 23.0 mph N/A   Clear
5:58 AM -13.0 °F -35.2 °F -18.0 °F 78% 30.26 in 10.0 mi NNW 13.8 mph - N/A   Clear
6:58 AM -13.0 °F -31.3 °F -18.0 °F 78% 30.27 in 10.0 mi NNE 9.2 mph - N/A   Clear
7:58 AM -13.0 °F -33.4 °F -18.0 °F 78% 30.28 in 10.0 mi North 11.5 mph - N/A   Clear
8:58 AM -14.1 °F -28.3 °F -18.9 °F 79% 30.30 in 10.0 mi NNW 5.8 mph - N/A   Clear
9:58 AM -13.0 °F -36.0 °F -18.0 °F 78% 30.30 in 10.0 mi NNW 15.0 mph - N/A   Clear
10:58 AM -11.0 °F -34.2 °F -17.0 °F 75% 30.31 in 10.0 mi NNW 16.1 mph - N/A   Clear
11:58 AM -8.0 °F -27.1 °F -15.0 °F 71% 30.33 in 9.0 mi North 11.5 mph - N/A   Clear
12:58 PM -6.0 °F -24.6 °F -14.1 °F 68% 30.35 in 9.0 mi NNW 11.5 mph - N/A   Clear
1:58 PM -4.0 °F -25.2 °F -13.0 °F 65% 30.36 in 9.0 mi NNW 16.1 mph - N/A   Clear
2:58 PM -5.1 °F -27.2 °F -14.1 °F 65% 30.37 in 9.0 mi NNW 17.3 mph - N/A   Clear
3:58 PM -5.1 °F -28.4 °F -13.0 °F 69% 30.38 in 9.0 mi North 19.6 mph - N/A   Clear
4:58 PM -7.1 °F -29.8 °F -15.0 °F 68% 30.39 in 9.0 mi North 17.3 mph - N/A   Clear
5:58 PM -9.9 °F -28.6 °F -17.0 °F 71% 30.41 in 10.0 mi NNW 10.4 mph - N/A   Clear
6:58 PM -11.0 °F -32.7 °F -18.0 °F 71% 30.43 in 10.0 mi NNW 13.8 mph - N/A   Clear
7:58 PM -11.9 °F -33.8 °F -18.0 °F 74% 30.44 in 10.0 mi North 13.8 mph - N/A   Clear
8:58 PM -11.9 °F -29.9 °F -18.0 °F 74% 30.45 in 10.0 mi NNW 9.2 mph - N/A   Clear
9:58 PM -14.1 °F -29.9 °F -20.0 °F 75% 30.45 in 10.0 mi North 6.9 mph - N/A   Clear
10:58 PM -15.0 °F -35.9 °F -20.0 °F 78% 30.45 in 10.0 mi North 11.5 mph - N/A   Clear
11:58 PM -16.1 °F -26.2 °F -20.9 °F 79% 30.46 in 10.0 mi North 3.5 mph - N/A   Clear